EW9965 Weather Reports


Display with metric or nautical units.
time (UTC)temp
F
wind
direction
speed
MPH
gust
MPH
rain 1hr
in
rain 24hr
in
rain mn
in
humidity
%
barometer
mb
20260503221526 68 181 2.0 8.0 0.00 0.01 0.01 60 1013.2
20260503220030 68 172 3.0 8.0 0.00 0.01 0.01 60 1013.4
20260503214525 69 197 4.0 8.0 0.00 0.01 0.01 60 1013.4
20260503213028 69 190 3.0 8.0 0.00 0.01 0.01 60 1013.4
20260503211535 69 167 4.0 9.0 0.00 0.01 0.01 61 1013.4
20260503210023 68 247 1.0 7.0 0.00 0.01 0.01 61 1013.4
20260503204523 68 188 2.0 9.0 0.00 0.01 0.01 62 1013.4
20260503203023 68 218 1.0 8.0 0.00 0.01 0.01 63 1013.7
20260503201521 67 194 1.0 8.0 0.00 0.01 0.01 64 1013.9
20260503200021 68 228 3.0 11.0 0.00 0.01 0.01 64 1014.0
20260503194520 68 221 4.0 11.0 0.00 0.01 0.01 64 1014.0
20260503193034 69 267 4.0 9.0 0.00 0.01 0.01 62 1013.9
20260503191519 69 176 1.0 8.0 0.00 0.01 0.01 62 1013.7
20260503190031 69 170 1.0 6.0 0.00 0.01 0.01 61 1013.8
20260503184518 68 207 3.0 8.0 0.00 0.01 0.01 64 1013.9
20260503183013 67 233 0.0 5.0 0.00 0.01 0.01 68 1013.9
20260503181513 67 68 1.0 6.0 0.00 0.01 0.01 67 1014.0
20260503180012 66 149 2.0 5.0 0.00 0.01 0.01 69 1014.0
20260503174509 66 242 1.0 5.0 0.00 0.01 0.01 72 1014.2
20260503173015 63 247 0.0 5.0 0.00 0.01 0.01 78 1014.3
20260503171604 62 268 0.0 4.0 0.00 0.01 0.01 82 1014.5
20260503081606 60 116 2.0 5.0 0.00 0.00 0.00 85 1013.5
20260503071552 60 197 0.0 4.0 0.00 0.00 0.00 84 1014.0
20260503054547 60 284 1.0 5.0 0.00 0.00 0.00 84 1014.0
20260503053046 60 268 1.0 5.0 0.00 0.00 0.00 84 1013.9
20260503051546 60 253 1.0 4.0 0.00 0.00 0.00 83 1013.4
20260503050045 61 168 0.0 2.0 0.00 0.00 0.00 82 1013.0
20260503044551 61 245 1.0 4.0 0.00 0.00 0.00 82 1012.9
20260503043045 61 213 0.0 4.0 0.00 0.00 0.00 81 1012.5
20260503041543 62 205 0.0 0.0 0.00 0.00 0.00 80 1012.0
20260503040043 62 225 0.0 0.0 0.00 0.00 0.00 79 1011.7
20260503034558 63 232 0.0 2.0 0.00 0.00 0.00 78 1011.4
20260503033051 63 230 0.0 4.0 0.00 0.00 0.00 77 1011.3
20260503031542 64 228 0.0 5.0 0.00 0.00 0.00 76 1011.1
20260503030043 65 197 0.0 5.0 0.00 0.00 0.00 74 1011.1
20260503024539 66 185 3.0 7.0 0.00 0.00 0.00 72 1011.1
20260503023037 67 210 1.0 6.0 0.00 0.00 0.00 70 1011.0
20260503021536 68 183 0.0 6.0 0.00 0.00 0.00 69 1010.8
20260503020036 69 225 3.0 8.0 0.00 0.00 0.00 67 1010.9
20260503014540 71 231 2.0 8.0 0.00 0.00 0.00 65 1010.7
20260503013034 72 197 1.0 6.0 0.00 0.00 0.00 63 1010.7
20260503011533 73 210 0.0 7.0 0.00 0.00 0.00 62 1010.6
20260503010035 74 255 3.0 7.0 0.00 0.00 0.00 61 1010.6
20260503004532 75 237 2.0 8.0 0.00 0.00 0.00 60 1010.5
20260503003047 76 247 1.0 7.0 0.00 0.00 0.00 58 1010.5
20260503001548 77 242 2.0 8.0 0.00 0.00 0.00 56 1010.5
20260503000032 78 231 4.0 8.0 0.00 0.00 0.00 55 1010.2
20260502234534 79 238 4.0 10.0 0.00 0.00 0.00 55 1010.4
20260502233030 79 171 4.0 10.0 0.00 0.00 0.00 54 1010.5
20260502231527 79 231 5.0 9.0 0.00 0.00 0.00 55 1010.4
20260502230032 80 238 3.0 8.0 0.00 0.00 0.00 54 1010.5
20260502224524 80 209 4.0 9.0 0.00 0.00 0.00 54 1010.8
20260502223023 79 198 3.0 10.0 0.00 0.00 0.00 54 1010.9